Main page
METAR-TAF:

METAR-TAF

Airports :

Guadalupe Mountains National Park

Pine Springs, Texas, United States

latitude: 31-49-52N, longitude: 104-48-32W, elevation: 5448 ft

Current weather observation

The report was made 47 minutes ago, at 03:51 UTC
Wind 37 mph from the West/Southwest
Temperature 52°F
Humidity 19%
Pressure 30.09 in. Hg
Visibility: 10 miles
Clear sky

METAR: KGDP 210351Z AUTO 25032KT 10SM CLR 11/M12 A3009 RMK AO2 PK WND 25036/0344 SLP165 T01111122

Time: 22:38 (04:38 UTC)


TAF: missing

Weather observations and forecasts of more than 4000 airports (METAR and TAF reports).

The available stations are represented by yellow and red dots on the map.

Hover mouse over dot to see the name of the station.

Then click to see weather observations and forecasts.

To change the map : click on the green buttons with a black cross to zoom in, on the green button with a dash to zoom out, or on the green arrows for adjacent maps.


METAR-TAF: